User: anonymous   Login
Location: Montr�al
(45.5000°N, 73.5830°W)
Time: 18:31:46
(UTC-04:00)
Language:

Cosmos 1151 Rocket - Orbit

View from above orbital plane
View from above orbital plane
View from above satellite
View from above satellite

Ground track
Ground track

The orbit data is extracted from the following two-line orbital elements,

1 11672U 80005B   17116.59757173 +.00000162 +00000-0 +14926-4 0  9995
2 11672 082.5130 128.0761 0018055 125.3660 234.9248 14.87860201994602
Epoch (UTC): 26 April 2017 14:20:30
Eccentricity: 0.0018055
inclination: 82.5130°
perigee height: 592 km
apogee height: 617 km
right ascension of ascending node: 128.0761°
argument of perigee: 125.3660°
revolutions per day: 14.87860201
mean anomaly at epoch: 234.9248°
orbit number at epoch: 99460

The dashed part of the orbit path shows where the satellite is in the earth's shadow,  

DLR